DLH103 LKPR-EGKK

Flight info

Callsign DLH103
Flight time 1h 36m
Altitude 40000
Route BALTU DCT DONAD DCT RAPET Z93 KODUK DCT MASEK DCT ARPEG DCT BREDA DCT GALSO Q63 ARREK Y4 TEBRA
Aircraft A343/H-SDE2E3FGHIJ4J5M1RWXY/LB1D1

Departure

Time 2026-05-06 13:49
Airport Václav Havel Airport Prague (LKPR)

Arrival

Time 2026-05-06 15:26
Airport London Gatwick Airport (EGKK)
Time Latitude Longitude Altitude Speed Heading
2026-05-06 13:14 50.10959 14.26543 1178 ft 0 kts 214°
2026-05-06 13:37 50.10963 14.26547 1178 ft 3 kts 215°
2026-05-06 13:37 50.10983 14.26573 1189 ft 4 kts 228°
2026-05-06 13:38 50.10998 14.26606 1168 ft 4 kts 256°
2026-05-06 13:38 50.10997 14.26638 1173 ft 4 kts 319°
2026-05-06 13:38 50.10994 14.26642 1178 ft 0 kts 326°
2026-05-06 13:42 50.10996 14.26641 1178 ft 1 kts 326°
2026-05-06 13:42 50.10997 14.26639 1178 ft 0 kts 326°
2026-05-06 13:44 50.11009 14.26626 1173 ft 5 kts 326°
2026-05-06 13:44 50.11043 14.26591 1174 ft 7 kts 326°
2026-05-06 13:44 50.11085 14.26574 1174 ft 6 kts
2026-05-06 13:44 50.11114 14.26591 1173 ft 7 kts 25°
2026-05-06 13:45 50.11188 14.26663 1170 ft 11 kts 41°
2026-05-06 13:45 50.11256 14.26844 1172 ft 13 kts 64°
2026-05-06 13:45 50.11298 14.26979 1171 ft 15 kts 64°
2026-05-06 13:46 50.11347 14.27143 1172 ft 18 kts 65°
2026-05-06 13:46 50.11393 14.27297 1173 ft 15 kts 65°
2026-05-06 13:46 50.11417 14.27373 1171 ft 5 kts 57°
2026-05-06 13:46 50.11429 14.27392 1173 ft 0 kts 39°
2026-05-06 13:47 50.11432 14.27395 1173 ft 1 kts 34°
2026-05-06 13:47 50.11452 14.27405 1174 ft 4 kts
2026-05-06 13:47 50.11494 14.27387 1171 ft 9 kts 333°
2026-05-06 13:48 50.11545 14.27309 1175 ft 10 kts 294°
2026-05-06 13:48 50.11541 14.27167 1172 ft 16 kts 247°
2026-05-06 13:48 50.11467 14.26912 1163 ft 50 kts 244°
2026-05-06 13:48 50.11219 14.26102 1157 ft 114 kts 245°
2026-05-06 13:49 50.10809 14.24740 1161 ft 162 kts 244°
2026-05-06 13:49 50.10295 14.23089 1686 ft 170 kts 242°
2026-05-06 13:49 50.09768 14.21436 2360 ft 174 kts 242°
2026-05-06 13:49 50.09197 14.19598 2751 ft 201 kts 242°
2026-05-06 13:50 50.08533 14.17521 3167 ft 230 kts 242°
2026-05-06 13:50 50.07815 14.15186 3905 ft 243 kts 243°
2026-05-06 13:50 50.07108 14.12805 4996 ft 244 kts 243°
2026-05-06 13:50 50.06400 14.10315 5690 ft 262 kts 245°
2026-05-06 13:51 50.05663 14.07716 6681 ft 263 kts 244°
2026-05-06 13:51 50.05119 14.05069 7726 ft 264 kts 258°
2026-05-06 13:51 50.05193 14.02129 8713 ft 273 kts 281°
2026-05-06 13:51 50.06053 13.99448 9622 ft 285 kts 305°
2026-05-06 13:52 50.07538 13.97376 10309 ft 301 kts 320°
2026-05-06 13:52 50.09324 13.95466 10677 ft 322 kts 323°
2026-05-06 13:52 50.11237 13.93479 11140 ft 338 kts 322°
2026-05-06 13:52 50.13210 13.91409 11770 ft 346 kts 322°
2026-05-06 13:53 50.15187 13.89227 12512 ft 350 kts 317°
2026-05-06 13:53 50.16873 13.86511 13276 ft 349 kts 301°
2026-05-06 13:53 50.17977 13.83188 14035 ft 345 kts 284°
2026-05-06 13:53 50.18419 13.79525 14716 ft 343 kts 268°
2026-05-06 13:54 50.18171 13.75833 15402 ft 344 kts 253°
2026-05-06 13:54 50.17476 13.72254 16093 ft 347 kts 249°
2026-05-06 13:54 50.16695 13.68670 16820 ft 351 kts 249°
2026-05-06 13:54 50.15907 13.65050 17513 ft 355 kts 249°
2026-05-06 13:55 50.15114 13.61380 18182 ft 359 kts 249°
2026-05-06 13:55 50.14319 13.57678 18813 ft 362 kts 249°
2026-05-06 13:55 50.13521 13.53950 19506 ft 363 kts 249°
2026-05-06 13:55 50.12719 13.50209 20171 ft 365 kts 248°
2026-05-06 13:56 50.11913 13.46450 20837 ft 367 kts 248°
2026-05-06 13:56 50.11103 13.42676 21493 ft 369 kts 248°
2026-05-06 13:56 50.10288 13.38888 22135 ft 370 kts 248°
2026-05-06 13:56 50.09484 13.35072 22872 ft 370 kts 249°
2026-05-06 13:57 50.08945 13.31128 23491 ft 376 kts 258°
2026-05-06 13:57 50.08697 13.27057 23966 ft 380 kts 261°
2026-05-06 13:57 50.08562 13.22917 24416 ft 385 kts 263°
2026-05-06 13:57 50.08481 13.18747 24887 ft 387 kts 263°
2026-05-06 13:58 50.08410 13.14546 25318 ft 389 kts 263°
2026-05-06 13:58 50.08331 13.10320 25764 ft 392 kts 263°
2026-05-06 13:58 50.08238 13.06066 26200 ft 394 kts 263°
2026-05-06 13:58 50.08240 13.01771 26635 ft 400 kts 268°
2026-05-06 13:59 50.08609 12.97441 27071 ft 407 kts 276°
2026-05-06 13:59 50.09218 12.93111 27483 ft 411 kts 277°
2026-05-06 13:59 50.09908 12.88771 27926 ft 414 kts 279°
2026-05-06 13:59 50.10643 12.84405 28236 ft 419 kts 279°
2026-05-06 14:00 50.11398 12.80006 28632 ft 421 kts 279°
2026-05-06 14:00 50.12157 12.75586 29042 ft 423 kts 279°
2026-05-06 14:00 50.12910 12.71152 29426 ft 425 kts 279°
2026-05-06 14:00 50.13661 12.66690 29816 ft 427 kts 279°
2026-05-06 14:01 50.14408 12.62206 30123 ft 428 kts 279°
2026-05-06 14:01 50.15153 12.57701 30420 ft 430 kts 279°
2026-05-06 14:01 50.15899 12.53168 30719 ft 432 kts 279°
2026-05-06 14:01 50.16649 12.48597 31019 ft 434 kts 279°
2026-05-06 14:02 50.17392 12.44057 31338 ft 435 kts 279°
2026-05-06 14:02 50.18141 12.39472 31614 ft 437 kts 279°
2026-05-06 14:02 50.18751 12.34846 31924 ft 434 kts 272°
2026-05-06 14:02 50.18981 12.30187 32332 ft 428 kts 267°
2026-05-06 14:03 50.19045 12.25559 32758 ft 426 kts 266°
2026-05-06 14:03 50.19056 12.20945 33157 ft 424 kts 265°
2026-05-06 14:03 50.19039 12.16351 33574 ft 423 kts 265°
2026-05-06 14:03 50.19009 12.11765 33918 ft 422 kts 264°
2026-05-06 14:04 50.18975 12.07180 34182 ft 422 kts 265°
2026-05-06 14:04 50.18941 12.02593 34415 ft 424 kts 265°
2026-05-06 14:04 50.18910 11.97993 34690 ft 424 kts 265°
2026-05-06 14:04 50.18880 11.93399 34967 ft 424 kts 265°
2026-05-06 14:05 50.18851 11.88786 35161 ft 425 kts 265°
2026-05-06 14:05 50.18821 11.84164 35363 ft 427 kts 265°
2026-05-06 14:05 50.18796 11.79533 35576 ft 428 kts 266°
2026-05-06 14:05 50.18830 11.74876 35775 ft 430 kts 267°
2026-05-06 14:06 50.18917 11.70195 35985 ft 432 kts 269°
2026-05-06 14:06 50.19261 11.65509 36181 ft 438 kts 276°
2026-05-06 14:06 50.20037 11.60887 36402 ft 444 kts 285°
2026-05-06 14:06 50.21113 11.56358 36620 ft 446 kts 287°
2026-05-06 14:07 50.22292 11.51872 36822 ft 448 kts 288°
2026-05-06 14:07 50.23529 11.47385 37002 ft 450 kts 289°
2026-05-06 14:07 50.24785 11.42900 37200 ft 451 kts 289°
2026-05-06 14:07 50.26039 11.38416 37411 ft 451 kts 289°
2026-05-06 14:08 50.27288 11.33912 37598 ft 452 kts 289°
2026-05-06 14:08 50.28512 11.29458 37824 ft 452 kts 289°
2026-05-06 14:08 50.29746 11.24934 38016 ft 453 kts 289°
2026-05-06 14:08 50.30976 11.20396 38221 ft 453 kts 289°
2026-05-06 14:09 50.32204 11.15852 38407 ft 454 kts 289°
2026-05-06 14:09 50.33431 11.11299 38601 ft 454 kts 289°
2026-05-06 14:09 50.34656 11.06745 38731 ft 455 kts 289°
2026-05-06 14:09 50.35900 11.02115 38916 ft 455 kts 289°
2026-05-06 14:10 50.37122 10.97560 39100 ft 454 kts 289°
2026-05-06 14:10 50.38344 10.92993 39255 ft 454 kts 289°
2026-05-06 14:10 50.39561 10.88435 39409 ft 454 kts 289°
2026-05-06 14:10 50.40778 10.83868 39561 ft 454 kts 289°
2026-05-06 14:11 50.41994 10.79301 39716 ft 454 kts 289°
2026-05-06 14:11 50.43212 10.74709 39761 ft 457 kts 289°
2026-05-06 14:11 50.45631 10.65506 39763 ft 459 kts 287°
2026-05-06 14:12 50.47701 10.56076 39759 ft 456 kts 285°
2026-05-06 14:12 50.49670 10.46612 39756 ft 456 kts 284°
2026-05-06 14:13 50.51608 10.37131 39747 ft 456 kts 284°
2026-05-06 14:13 50.53539 10.27651 39747 ft 456 kts 284°
2026-05-06 14:14 50.55468 10.18158 39747 ft 455 kts 284°
2026-05-06 14:14 50.57385 10.08689 39734 ft 455 kts 284°
2026-05-06 14:15 50.59297 9.99205 39741 ft 455 kts 284°
2026-05-06 14:15 50.61200 9.89712 39734 ft 455 kts 284°
2026-05-06 14:16 50.63096 9.80207 39738 ft 455 kts 284°
2026-05-06 14:16 50.64982 9.70706 39735 ft 455 kts 284°
2026-05-06 14:17 50.66864 9.61177 39737 ft 455 kts 284°
2026-05-06 14:17 50.68736 9.51656 39739 ft 455 kts 284°
2026-05-06 14:18 50.70598 9.42131 39739 ft 455 kts 284°
2026-05-06 14:18 50.72455 9.32588 39744 ft 455 kts 284°
2026-05-06 14:19 50.74307 9.23018 39744 ft 456 kts 284°
2026-05-06 14:19 50.76151 9.13445 39744 ft 456 kts 284°
2026-05-06 14:20 50.77990 9.03855 39744 ft 456 kts 283°
2026-05-06 14:20 50.79817 8.94283 39749 ft 456 kts 283°
2026-05-06 14:21 50.81642 8.84667 39749 ft 456 kts 283°
2026-05-06 14:21 50.83431 8.75170 39755 ft 456 kts 283°
2026-05-06 14:22 50.85238 8.65560 39760 ft 455 kts 283°
2026-05-06 14:22 50.87022 8.56008 39762 ft 456 kts 283°
2026-05-06 14:23 50.88812 8.46389 39779 ft 456 kts 283°
2026-05-06 14:23 50.90597 8.36744 39772 ft 456 kts 283°
2026-05-06 14:24 50.92376 8.27080 39781 ft 457 kts 283°
2026-05-06 14:24 50.94145 8.17415 39777 ft 457 kts 283°
2026-05-06 14:25 50.95906 8.07745 39788 ft 456 kts 283°
2026-05-06 14:25 50.97660 7.98057 39793 ft 457 kts 282°
2026-05-06 14:26 50.99410 7.88339 39795 ft 458 kts 282°
2026-05-06 14:26 51.01154 7.78604 39787 ft 459 kts 282°
2026-05-06 14:27 51.02890 7.68867 39806 ft 458 kts 282°
2026-05-06 14:27 51.04618 7.59112 39810 ft 458 kts 282°
2026-05-06 14:28 51.06336 7.49362 39817 ft 458 kts 282°
2026-05-06 14:28 51.08050 7.39590 39831 ft 458 kts 282°
2026-05-06 14:29 51.09753 7.29824 39828 ft 458 kts 282°
2026-05-06 14:29 51.11448 7.20047 39829 ft 458 kts 282°
2026-05-06 14:30 51.12848 7.11931 39849 ft 457 kts 282°
2026-05-06 14:30 51.14522 7.02177 39851 ft 456 kts 282°
2026-05-06 14:31 51.16187 6.92428 39851 ft 458 kts 282°
2026-05-06 14:31 51.17863 6.82544 39858 ft 466 kts 282°
2026-05-06 14:32 51.19557 6.72499 39860 ft 473 kts 282°
2026-05-06 14:32 51.21272 6.62275 39860 ft 480 kts 282°
2026-05-06 14:33 51.22992 6.51970 39856 ft 480 kts 282°
2026-05-06 14:33 51.24697 6.41696 39855 ft 479 kts 282°
2026-05-06 14:34 51.26389 6.31424 39858 ft 479 kts 282°
2026-05-06 14:34 51.28072 6.21146 39858 ft 478 kts 282°
2026-05-06 14:35 51.29746 6.10854 39863 ft 478 kts 282°
2026-05-06 14:35 51.31411 6.00567 39856 ft 478 kts 282°
2026-05-06 14:36 51.33065 5.90274 39871 ft 478 kts 282°
2026-05-06 14:36 51.34712 5.79967 39875 ft 478 kts 282°
2026-05-06 14:37 51.36350 5.69655 39882 ft 478 kts 282°
2026-05-06 14:37 51.37977 5.59342 39882 ft 478 kts 282°
2026-05-06 14:38 51.39589 5.49062 39883 ft 477 kts 282°
2026-05-06 14:38 51.41197 5.38743 39882 ft 477 kts 282°
2026-05-06 14:39 51.42795 5.28421 39883 ft 478 kts 282°
2026-05-06 14:39 51.44385 5.18087 39883 ft 477 kts 282°
2026-05-06 14:40 51.45964 5.07756 39882 ft 477 kts 282°
2026-05-06 14:40 51.47533 4.97430 39879 ft 476 kts 281°
2026-05-06 14:41 51.49092 4.87101 39879 ft 476 kts 281°
2026-05-06 14:41 51.50640 4.76775 39882 ft 476 kts 281°
2026-05-06 14:42 51.52179 4.66437 39878 ft 476 kts 281°
2026-05-06 14:42 51.53710 4.56090 39886 ft 476 kts 281°
2026-05-06 14:43 51.55231 4.45746 39883 ft 476 kts 281°
2026-05-06 14:43 51.56735 4.35444 39881 ft 476 kts 281°
2026-05-06 14:44 51.58240 4.25069 39881 ft 476 kts 281°
2026-05-06 14:45 51.60486 4.09447 39892 ft 476 kts 281°
2026-05-06 14:45 51.61968 3.99059 39900 ft 476 kts 281°
2026-05-06 14:46 51.63427 3.88754 39900 ft 476 kts 281°
2026-05-06 14:46 51.64609 3.80359 39901 ft 476 kts 281°
2026-05-06 14:47 51.66012 3.70338 39897 ft 476 kts 281°
2026-05-06 14:47 51.67448 3.60002 39911 ft 476 kts 281°
2026-05-06 14:47 51.68167 3.54800 39804 ft 474 kts 281°
2026-05-06 14:48 51.68879 3.49632 39474 ft 471 kts 280°
2026-05-06 14:48 51.69586 3.44489 39016 ft 470 kts 280°
2026-05-06 14:48 51.70289 3.39347 38542 ft 469 kts 280°
2026-05-06 14:48 51.70987 3.34218 37943 ft 468 kts 280°
2026-05-06 14:49 51.71682 3.29098 37311 ft 467 kts 281°
2026-05-06 14:49 51.72374 3.23980 36660 ft 467 kts 281°
2026-05-06 14:49 51.72860 3.18815 36114 ft 463 kts 273°
2026-05-06 14:49 51.72869 3.13649 35556 ft 460 kts 264°
2026-05-06 14:50 51.72568 3.08518 34918 ft 460 kts 262°
2026-05-06 14:50 51.72172 3.03404 34271 ft 460 kts 262°
2026-05-06 14:50 51.71728 2.98295 33460 ft 462 kts 261°
2026-05-06 14:50 51.71261 2.93173 32734 ft 461 kts 260°
2026-05-06 14:51 51.70793 2.88073 32032 ft 459 kts 261°
2026-05-06 14:51 51.70328 2.82978 31378 ft 457 kts 261°
2026-05-06 14:51 51.69873 2.77938 30883 ft 452 kts 261°
2026-05-06 14:51 51.69425 2.72949 30364 ft 447 kts 261°
2026-05-06 14:52 51.68982 2.68011 29829 ft 443 kts 261°
2026-05-06 14:52 51.68550 2.63159 29278 ft 438 kts 261°
2026-05-06 14:52 51.68116 2.58293 28758 ft 433 kts 261°
2026-05-06 14:52 51.67688 2.53526 28230 ft 428 kts 261°
2026-05-06 14:53 51.67261 2.48807 27707 ft 423 kts 261°
2026-05-06 14:53 51.66840 2.44146 27220 ft 418 kts 261°
2026-05-06 14:53 51.66418 2.39534 26720 ft 414 kts 261°
2026-05-06 14:53 51.65996 2.34971 26191 ft 411 kts 261°
2026-05-06 14:54 51.65574 2.30432 25695 ft 408 kts 261°
2026-05-06 14:54 51.65156 2.25939 25190 ft 404 kts 261°
2026-05-06 14:54 51.64739 2.21481 24693 ft 401 kts 261°
2026-05-06 14:54 51.64325 2.17055 24177 ft 399 kts 261°
2026-05-06 14:55 51.63911 2.12658 23690 ft 396 kts 261°
2026-05-06 14:55 51.63502 2.08292 23162 ft 393 kts 261°
2026-05-06 14:55 51.63103 2.03970 22659 ft 388 kts 261°
2026-05-06 14:55 51.62707 1.99689 22174 ft 384 kts 261°
2026-05-06 14:56 51.62322 1.95516 21698 ft 380 kts 261°
2026-05-06 14:56 51.61937 1.91340 21230 ft 376 kts 261°
2026-05-06 14:56 51.61477 1.87198 20756 ft 374 kts 255°
2026-05-06 14:56 51.60557 1.83309 20278 ft 372 kts 242°
2026-05-06 14:57 51.59121 1.79784 19794 ft 372 kts 234°
2026-05-06 14:57 51.57538 1.76578 19329 ft 370 kts 230°
2026-05-06 14:57 51.55828 1.73507 18859 ft 369 kts 229°
2026-05-06 14:57 51.54101 1.70473 18394 ft 367 kts 229°
2026-05-06 14:58 51.52393 1.67445 17908 ft 365 kts 229°
2026-05-06 14:58 51.50703 1.64422 17395 ft 363 kts 229°
2026-05-06 14:58 51.49142 1.61275 16934 ft 359 kts 239°
2026-05-06 14:58 51.48069 1.57695 16487 ft 355 kts 250°
2026-05-06 14:59 51.47208 1.53995 16010 ft 353 kts 251°
2026-05-06 14:59 51.46371 1.50297 15538 ft 353 kts 251°
2026-05-06 14:59 51.45530 1.46604 15068 ft 351 kts 251°
2026-05-06 14:59 51.44690 1.42936 14604 ft 349 kts 251°
2026-05-06 15:00 51.43771 1.39348 14149 ft 349 kts 244°
2026-05-06 15:00 51.42311 1.36260 13806 ft 348 kts 224°
2026-05-06 15:00 51.40415 1.33827 13657 ft 351 kts 218°
2026-05-06 15:00 51.38443 1.31502 13471 ft 352 kts 218°
2026-05-06 15:01 51.36471 1.29190 13287 ft 351 kts 218°
2026-05-06 15:01 51.34505 1.26879 13090 ft 350 kts 218°
2026-05-06 15:01 51.32546 1.24574 12922 ft 349 kts 218°
2026-05-06 15:01 51.30591 1.22271 12722 ft 349 kts 218°
2026-05-06 15:02 51.28634 1.19967 12546 ft 349 kts 218°
2026-05-06 15:02 51.26689 1.17677 12369 ft 348 kts 218°
2026-05-06 15:02 51.24735 1.15381 12188 ft 348 kts 218°
2026-05-06 15:02 51.22790 1.13097 11996 ft 348 kts 218°
2026-05-06 15:03 51.20843 1.10812 11827 ft 347 kts 218°
2026-05-06 15:03 51.18902 1.08535 11630 ft 346 kts 217°
2026-05-06 15:03 51.16963 1.06265 11464 ft 346 kts 218°
2026-05-06 15:03 51.15033 1.04008 11308 ft 339 kts 218°
2026-05-06 15:04 51.13158 1.01819 11158 ft 329 kts 218°
2026-05-06 15:04 51.11341 0.99699 10985 ft 319 kts 218°
2026-05-06 15:04 51.09574 0.97638 10818 ft 311 kts 218°
2026-05-06 15:04 51.07851 0.95632 10643 ft 304 kts 218°
2026-05-06 15:05 51.06231 0.93549 10480 ft 295 kts 227°
2026-05-06 15:05 51.05060 0.90956 10335 ft 287 kts 244°
2026-05-06 15:05 51.04178 0.88097 10172 ft 289 kts 248°
2026-05-06 15:05 51.03334 0.85217 10041 ft 286 kts 247°
2026-05-06 15:06 51.02486 0.82341 9894 ft 288 kts 248°
2026-05-06 15:06 51.01635 0.79464 9803 ft 288 kts 246°
2026-05-06 15:06 51.00786 0.76617 9585 ft 286 kts 246°
2026-05-06 15:06 50.99930 0.73755 9423 ft 286 kts 246°
2026-05-06 15:07 50.99078 0.70910 9264 ft 284 kts 248°
2026-05-06 15:07 50.98229 0.68076 9109 ft 285 kts 248°
2026-05-06 15:07 50.97385 0.65247 8980 ft 282 kts 248°
2026-05-06 15:07 50.96536 0.62431 8813 ft 283 kts 246°
2026-05-06 15:08 50.95681 0.59613 8704 ft 282 kts 246°
2026-05-06 15:08 50.94837 0.56822 8529 ft 281 kts 246°
2026-05-06 15:08 50.93993 0.54023 8388 ft 281 kts 246°
2026-05-06 15:08 50.93150 0.51237 8236 ft 281 kts 247°
2026-05-06 15:09 50.92306 0.48444 8128 ft 279 kts 246°
2026-05-06 15:09 50.91595 0.45656 8012 ft 267 kts 258°
2026-05-06 15:09 50.91535 0.42844 7974 ft 246 kts 282°
2026-05-06 15:09 50.91943 0.40254 7983 ft 242 kts 288°
2026-05-06 15:10 50.92421 0.37699 7984 ft 241 kts 288°
2026-05-06 15:10 50.92900 0.35153 7987 ft 241 kts 288°
2026-05-06 15:10 50.93373 0.32609 7989 ft 240 kts 288°
2026-05-06 15:10 50.93889 0.30135 7967 ft 235 kts 295°
2026-05-06 15:11 50.94628 0.27822 7973 ft 237 kts 301°
2026-05-06 15:11 50.95432 0.25531 7971 ft 238 kts 301°
2026-05-06 15:11 50.96248 0.23263 7847 ft 236 kts 301°
2026-05-06 15:11 50.97067 0.20989 7563 ft 237 kts 301°
2026-05-06 15:12 50.97886 0.18715 7314 ft 237 kts 301°
2026-05-06 15:12 50.98703 0.16450 7082 ft 237 kts 301°
2026-05-06 15:12 50.99517 0.14190 6995 ft 236 kts 301°
2026-05-06 15:12 51.00332 0.11925 6987 ft 236 kts 301°
2026-05-06 15:13 51.01148 0.09659 6992 ft 237 kts 301°
2026-05-06 15:13 51.01893 0.07342 6981 ft 237 kts 291°
2026-05-06 15:13 51.02213 0.04765 6991 ft 239 kts 278°
2026-05-06 15:13 51.02317 0.03026 6983 ft 239 kts 276°
2026-05-06 15:14 51.02449 0.00387 6977 ft 239 kts 276°
2026-05-06 15:14 51.02562 -0.02247 6982 ft 238 kts 276°
2026-05-06 15:14 51.02651 -0.04846 6983 ft 235 kts 276°
2026-05-06 15:14 51.02735 -0.07431 6994 ft 234 kts 276°
2026-05-06 15:15 51.02819 -0.10012 6991 ft 234 kts 276°
2026-05-06 15:15 51.02902 -0.12597 6993 ft 234 kts 276°
2026-05-06 15:15 51.02983 -0.15177 6993 ft 234 kts 276°
2026-05-06 15:15 51.03065 -0.17752 6988 ft 234 kts 276°
2026-05-06 15:16 51.03147 -0.20337 6992 ft 234 kts 276°
2026-05-06 15:16 51.03232 -0.22916 6989 ft 234 kts 276°
2026-05-06 15:16 51.03315 -0.25496 6966 ft 232 kts 276°
2026-05-06 15:16 51.03391 -0.28038 6664 ft 230 kts 276°
2026-05-06 15:17 51.03473 -0.30567 6145 ft 229 kts 276°
2026-05-06 15:17 51.03556 -0.33101 5540 ft 230 kts 276°
2026-05-06 15:17 51.03640 -0.35650 4954 ft 232 kts 276°
2026-05-06 15:17 51.03733 -0.38215 4381 ft 233 kts 276°
2026-05-06 15:18 51.03807 -0.40774 4045 ft 230 kts 276°
2026-05-06 15:18 51.03884 -0.43289 3972 ft 225 kts 276°
2026-05-06 15:18 51.03956 -0.45710 3967 ft 213 kts 275°
2026-05-06 15:18 51.04020 -0.47983 3971 ft 199 kts 276°
2026-05-06 15:19 51.04059 -0.50121 3966 ft 190 kts 276°
2026-05-06 15:19 51.04091 -0.52197 4007 ft 186 kts 276°
2026-05-06 15:19 51.04375 -0.54153 3987 ft 181 kts 305°
2026-05-06 15:19 51.05298 -0.55339 3976 ft 174 kts 343°
2026-05-06 15:20 51.06477 -0.55254 3916 ft 171 kts 21°
2026-05-06 15:20 51.07406 -0.54074 3577 ft 174 kts 46°
2026-05-06 15:20 51.08167 -0.52552 3222 ft 177 kts 51°
2026-05-06 15:20 51.08897 -0.50976 3009 ft 177 kts 50°
2026-05-06 15:21 51.09626 -0.49377 2983 ft 179 kts 50°
2026-05-06 15:21 51.10365 -0.47766 2988 ft 180 kts 51°
2026-05-06 15:21 51.10986 -0.46027 2983 ft 183 kts 65°
2026-05-06 15:21 51.11338 -0.44076 2991 ft 184 kts 74°
2026-05-06 15:22 51.11621 -0.42091 2966 ft 185 kts 73°
2026-05-06 15:22 51.11903 -0.40097 2752 ft 182 kts 74°
2026-05-06 15:22 51.12167 -0.38175 2497 ft 173 kts 74°
2026-05-06 15:22 51.12420 -0.36347 2244 ft 165 kts 72°
2026-05-06 15:23 51.12662 -0.34607 2037 ft 155 kts 73°
2026-05-06 15:23 51.12884 -0.33005 1815 ft 142 kts 73°
2026-05-06 15:23 51.13087 -0.31535 1637 ft 132 kts 72°
2026-05-06 15:23 51.13284 -0.30114 1469 ft 130 kts 73°
2026-05-06 15:24 51.13475 -0.28723 1308 ft 129 kts 71°
2026-05-06 15:24 51.13670 -0.27320 1107 ft 130 kts 74°
2026-05-06 15:24 51.13864 -0.25907 914 ft 131 kts 71°
2026-05-06 15:24 51.14060 -0.24490 734 ft 132 kts 74°
2026-05-06 15:25 51.14255 -0.23071 548 ft 131 kts 72°
2026-05-06 15:25 51.14450 -0.21656 372 ft 130 kts 72°
2026-05-06 15:25 51.14643 -0.20263 229 ft 126 kts 76°
2026-05-06 15:25 51.14805 -0.19108 215 ft 71 kts 77°
2026-05-06 15:26 51.14843 -0.18837 214 ft 14 kts 77°
2026-05-06 15:26 51.14924 -0.18544 218 ft 40 kts 53°
2026-05-06 15:26 51.15034 -0.18332 216 ft 9 kts 52°
2026-05-06 15:26 51.15038 -0.18323 216 ft 0 kts 52°
2026-05-06 15:27 51.15061 -0.18276 214 ft 10 kts 52°
2026-05-06 15:28 51.15106 -0.18189 219 ft 10 kts 59°
2026-05-06 15:28 51.15132 -0.18107 217 ft 7 kts 51°
2026-05-06 15:28 51.15149 -0.18088 217 ft 4 kts 28°
2026-05-06 15:28 51.15194 -0.18081 213 ft 6 kts 355°
2026-05-06 15:29 51.15264 -0.18102 208 ft 14 kts 349°
2026-05-06 15:29 51.15376 -0.18141 218 ft 17 kts 347°
2026-05-06 15:29 51.15399 -0.18149 214 ft 6 kts 347°
2026-05-06 15:29 51.15465 -0.18176 213 ft 13 kts 343°
2026-05-06 15:30 51.15564 -0.18215 212 ft 11 kts 347°
2026-05-06 15:30 51.15644 -0.18221 210 ft 8 kts 27°
2026-05-06 15:30 51.15674 -0.18138 218 ft 11 kts 74°
2026-05-06 15:30 51.15696 -0.17989 211 ft 17 kts 78°
2026-05-06 15:31 51.15721 -0.17804 218 ft 11 kts 77°
2026-05-06 15:31 51.15736 -0.17695 218 ft 9 kts 77°
2026-05-06 15:31 51.15742 -0.17654 213 ft 7 kts 77°
2026-05-06 15:32 51.15757 -0.17546 214 ft 0 kts 77°
2026-05-06 15:32 51.15771 -0.17517 219 ft 5 kts 35°
2026-05-06 15:32 51.15813 -0.17509 214 ft 7 kts 354°
2026-05-06 15:32 51.15833 -0.17513 214 ft 5 kts 351°
2026-05-06 15:33 51.15850 -0.17518 216 ft 0 kts 350°
2026-05-06 15:33 51.15856 -0.17520 216 ft 0 kts 349°
2026-05-06 15:34 51.15853 -0.17519 216 ft 0 kts 348°